| time (UTC) | temp C | wind direction | speed KPH | gust KPH | rain 1hr cm | rain 24hr cm | rain mn cm | humidity % | barometer mb |
| 20260508210128 | 22 | 229 | 6.4 | 12.9 | 0.00 | 0.58 | 0.15 | 84 | 135.0 |
| 20260508205558 | 22 | 240 | 6.4 | 12.9 | 0.00 | 0.58 | 0.15 | 84 | 291.7 |
| 20260508205102 | 22 | 245 | 6.4 | 12.9 | 0.00 | 0.58 | 0.15 | 84 | 291.7 |
| 20260508204558 | 22 | 214 | 4.8 | 11.3 | 0.00 | 0.58 | 0.15 | 84 | 456.3 |
| 20260508204058 | 22 | 217 | 4.8 | 12.9 | 0.00 | 0.58 | 0.15 | 84 | 818.6 |
| 20260508203601 | 22 | 213 | 6.4 | 12.9 | 0.00 | 0.58 | 0.15 | 84 | 2214.8 |
| 20260508203059 | 22 | 215 | 6.4 | 11.3 | 0.00 | 0.58 | 0.15 | 84 | 1480.7 |
| 20260508202559 | 22 | 218 | 6.4 | 14.5 | 0.00 | 0.58 | 0.15 | 84 | 1056.6 |
| 20260508202101 | 22 | 200 | 4.8 | 14.5 | 0.00 | 0.58 | 0.15 | 85 | 321.6 |
| 20260508201559 | 22 | 242 | 9.7 | 14.5 | 0.00 | 0.58 | 0.15 | 85 | 818.6 |
| 20260508201058 | 22 | 265 | 6.4 | 9.7 | 0.00 | 0.58 | 0.15 | 85 | 1625.5 |
| 20260508200558 | 22 | 210 | 4.8 | 9.7 | 0.00 | 0.58 | 0.15 | 85 | 1811.6 |
| 20260508200103 | 22 | 214 | 4.8 | 9.7 | 0.00 | 0.58 | 0.15 | 85 | 622.0 |
| 20260508195601 | 22 | 225 | 1.6 | 11.3 | 0.00 | 0.58 | 0.15 | 85 | 1811.6 |
| 20260508195101 | 22 | 228 | 4.8 | 11.3 | 0.00 | 0.58 | 0.15 | 85 | 1449.7 |
| 20260508194558 | 22 | 223 | 6.4 | 22.5 | 0.00 | 0.58 | 0.15 | 85 | 787.6 |
| 20260508194101 | 22 | 229 | 11.3 | 22.5 | 0.00 | 0.58 | 0.15 | 85 | 229.5 |
| 20260508193600 | 22 | 196 | 3.2 | 11.3 | 0.00 | 0.58 | 0.15 | 85 | 1366.9 |
| 20260508193110 | 22 | 209 | 4.8 | 11.3 | 0.00 | 0.58 | 0.15 | 85 | 1966.7 |
| 20260508192558 | 22 | 219 | 3.2 | 11.3 | 0.00 | 0.58 | 0.15 | 86 | 1718.5 |
| 20260508192101 | 22 | 230 | 3.2 | 9.7 | 0.00 | 0.58 | 0.15 | 86 | 653.0 |
| 20260508191559 | 22 | 164 | 1.6 | 9.7 | 0.00 | 0.58 | 0.15 | 86 | 963.5 |
| 20260508191101 | 22 | 248 | 3.2 | 9.7 | 0.00 | 0.58 | 0.15 | 86 | 1718.5 |
| 20260508190559 | 22 | 209 | 4.8 | 9.7 | 0.00 | 0.58 | 0.15 | 86 | 487.3 |
| 20260508190104 | 22 | 250 | 4.8 | 11.3 | 0.00 | 0.58 | 0.15 | 86 | 146.5 |
| 20260508185558 | 22 | 221 | 4.8 | 11.3 | 0.00 | 0.58 | 0.15 | 86 | 1553.1 |
| 20260508185100 | 22 | 173 | 3.2 | 14.5 | 0.00 | 0.58 | 0.15 | 85 | 1873.6 |
| 20260508184644 | 22 | 208 | 4.8 | 17.7 | 0.00 | 0.58 | 0.15 | 85 | 291.7 |
| 20260508184059 | 22 | 209 | 9.7 | 17.7 | 0.00 | 0.58 | 0.15 | 85 | 570.2 |
| 20260508183559 | 22 | 161 | 6.4 | 14.5 | 0.00 | 0.58 | 0.15 | 85 | 404.5 |
| 20260508183058 | 22 | 202 | 6.4 | 16.1 | 0.00 | 0.58 | 0.15 | 85 | 725.5 |
| 20260508182558 | 22 | 221 | 8.0 | 16.1 | 0.00 | 0.58 | 0.15 | 85 | 1708.2 |
| 20260508182058 | 22 | 197 | 8.0 | 16.1 | 0.00 | 0.58 | 0.15 | 85 | 146.5 |
| 20260508181608 | 22 | 223 | 4.8 | 8.0 | 0.00 | 0.58 | 0.15 | 85 | 953.2 |
| 20260508181101 | 22 | 186 | 4.8 | 14.5 | 0.00 | 0.58 | 0.15 | 85 | 41.5 |
| 20260508180601 | 22 | 184 | 8.0 | 16.1 | 0.00 | 0.58 | 0.15 | 85 | 973.8 |
| 20260508175601 | 22 | 217 | 9.7 | 16.1 | 0.00 | 0.58 | 0.15 | 85 | 880.7 |
| 20260508175059 | 22 | 248 | 4.8 | 16.1 | 0.00 | 0.58 | 0.15 | 85 | 901.4 |
| 20260508174600 | 22 | 229 | 6.4 | 12.9 | 0.00 | 0.58 | 0.15 | 85 | 1615.1 |
| 20260508174101 | 22 | 218 | 6.4 | 11.3 | 0.00 | 0.58 | 0.15 | 85 | 622.0 |
| 20260508173603 | 22 | 246 | 4.8 | 12.9 | 0.00 | 0.58 | 0.15 | 86 | 973.8 |
| 20260508173101 | 22 | 185 | 3.2 | 12.9 | 0.00 | 0.58 | 0.15 | 86 | 456.3 |
| 20260508172601 | 22 | 221 | 8.0 | 14.5 | 0.00 | 0.58 | 0.15 | 86 | 2142.4 |
| 20260508172101 | 22 | 247 | 9.7 | 14.5 | 0.00 | 0.58 | 0.15 | 86 | 51.9 |
| 20260508171600 | 22 | 204 | 4.8 | 12.9 | 0.03 | 0.58 | 0.15 | 86 | 622.0 |
| 20260508171104 | 22 | 207 | 3.2 | 11.3 | 0.03 | 0.58 | 0.15 | 86 | 63.5 |
| 20260508170601 | 22 | 240 | 4.8 | 11.3 | 0.05 | 0.58 | 0.15 | 87 | 53.1 |
| 20260508170059 | 21 | 217 | 1.6 | 8.0 | 0.03 | 0.56 | 0.13 | 87 | 1398.0 |
| 20260508165600 | 21 | 250 | 3.2 | 8.0 | 0.03 | 0.56 | 0.13 | 87 | 818.6 |
| 20260508165100 | 21 | 257 | 3.2 | 6.4 | 0.03 | 0.56 | 0.13 | 87 | 632.3 |
| 20260508164605 | 22 | 278 | 0.0 | 8.0 | 0.03 | 0.56 | 0.13 | 87 | 1201.4 |
| 20260508164102 | 22 | 225 | 3.2 | 9.7 | 0.03 | 0.56 | 0.13 | 87 | 207.6 |
| 20260508163605 | 22 | 217 | 3.2 | 12.9 | 0.03 | 0.56 | 0.13 | 87 | 51.9 |
| 20260508163101 | 22 | 220 | 6.4 | 12.9 | 0.03 | 0.56 | 0.13 | 87 | 219.2 |
| 20260508162601 | 22 | 224 | 1.6 | 9.7 | 0.03 | 0.56 | 0.13 | 87 | 539.1 |
| 20260508162103 | 22 | 238 | 3.2 | 9.7 | 0.05 | 0.56 | 0.13 | 86 | 1780.6 |
| 20260508161600 | 22 | 219 | 3.2 | 9.7 | 0.03 | 0.56 | 0.10 | 86 | 63.5 |
| 20260508161101 | 22 | 227 | 3.2 | 14.5 | 0.05 | 0.56 | 0.10 | 86 | 41.5 |
| 20260508160559 | 22 | 178 | 4.8 | 14.5 | 0.03 | 0.53 | 0.08 | 86 | 963.5 |
| 20260508160058 | 22 | 211 | 6.4 | 14.5 | 0.05 | 0.53 | 0.08 | 86 | 1780.6 |
| 20260508155558 | 22 | 229 | 3.2 | 14.5 | 0.05 | 0.53 | 0.08 | 87 | 953.2 |
| 20260508155101 | 22 | 250 | 4.8 | 8.0 | 0.05 | 0.53 | 0.08 | 87 | 1956.3 |
| 20260508154559 | 22 | 219 | 0.0 | 9.7 | 0.05 | 0.53 | 0.08 | 87 | 1801.2 |
| 20260508154101 | 22 | 223 | 4.8 | 16.1 | 0.08 | 0.53 | 0.08 | 87 | 1222.1 |
| 20260508153558 | 22 | 225 | 8.0 | 16.1 | 0.08 | 0.53 | 0.08 | 87 | 891.1 |
| 20260508153100 | 22 | 248 | 3.2 | 9.7 | 0.08 | 0.53 | 0.08 | 87 | 1532.4 |
| 20260508152558 | 22 | 223 | 1.6 | 8.0 | 0.08 | 0.53 | 0.08 | 87 | 1532.4 |
| 20260508152101 | 22 | 217 | 3.2 | 8.0 | 0.05 | 0.51 | 0.08 | 87 | 2132.1 |
| 20260508151604 | 22 | 266 | 1.6 | 6.4 | 0.05 | 0.51 | 0.08 | 87 | 1646.2 |
| 20260508151058 | 22 | 266 | 1.6 | 6.4 | 0.03 | 0.48 | 0.05 | 87 | 63.5 |
| 20260508150558 | 22 | 238 | 3.2 | 8.0 | 0.03 | 0.48 | 0.05 | 87 | 312.4 |
| 20260508150106 | 22 | 205 | 3.2 | 11.3 | 0.03 | 0.46 | 0.03 | 87 | 1284.2 |
| 20260508145601 | 22 | 271 | 4.8 | 11.3 | 0.03 | 0.46 | 0.03 | 87 | 901.4 |
| 20260508145104 | 22 | 228 | 4.8 | 12.9 | 0.03 | 0.46 | 0.03 | 87 | 1366.9 |
| 20260508144636 | 22 | 229 | 6.4 | 12.9 | 0.03 | 0.46 | 0.03 | 87 | 1532.4 |
| 20260508144058 | 22 | 199 | 4.8 | 9.7 | 0.00 | 0.46 | 0.00 | 87 | 1201.4 |
| 20260508143558 | 22 | 211 | 4.8 | 8.0 | 0.00 | 0.46 | 0.00 | 87 | 622.0 |
| 20260508143114 | 22 | 211 | 4.8 | 8.0 | 0.03 | 0.46 | 0.00 | 87 | 973.8 |
| 20260508142557 | 22 | 265 | 4.8 | 12.9 | 0.08 | 0.46 | 0.00 | 87 | 207.6 |
| 20260508142058 | 22 | 239 | 3.2 | 12.9 | 0.08 | 0.46 | 0.00 | 87 | 870.4 |
| 20260508141608 | 22 | 248 | 4.8 | 12.9 | 0.08 | 0.46 | 0.00 | 87 | 653.0 |
| 20260508141102 | 22 | 205 | 4.8 | 11.3 | 0.08 | 0.46 | 0.00 | 87 | 2039.1 |
| 20260508140557 | 21 | 249 | 4.8 | 9.7 | 0.08 | 0.46 | 0.00 | 87 | 125.8 |
| 20260508140058 | 21 | 257 | 3.2 | 9.7 | 0.08 | 0.43 | 0.00 | 87 | 311.3 |
| 20260508135601 | 21 | 229 | 4.8 | 9.7 | 0.08 | 0.43 | 0.43 | 87 | 1977.0 |
| 20260508135100 | 21 | 226 | 3.2 | 11.3 | 0.08 | 0.43 | 0.43 | 87 | 145.3 |
| 20260508134601 | 21 | 190 | 4.8 | 19.3 | 0.08 | 0.43 | 0.43 | 88 | 1470.4 |
| 20260508134058 | 21 | 180 | 4.8 | 19.3 | 0.08 | 0.43 | 0.43 | 88 | 715.1 |
| 20260508133558 | 21 | 193 | 3.2 | 9.7 | 0.08 | 0.43 | 0.43 | 88 | 622.0 |
| 20260508133120 | 21 | 202 | 1.6 | 3.2 | 0.08 | 0.41 | 0.41 | 88 | 5.8 |
| 20260508132558 | 21 | 252 | 0.0 | 3.2 | 0.03 | 0.36 | 0.36 | 88 | 1284.2 |
| 20260508132058 | 21 | 0 | 1.6 | 8.0 | 0.03 | 0.36 | 0.36 | 88 | 1718.5 |
| 20260508131559 | 21 | 287 | 1.6 | 8.0 | 0.03 | 0.36 | 0.36 | 88 | 1387.6 |
| 20260508131100 | 21 | 293 | 1.6 | 6.4 | 0.03 | 0.36 | 0.36 | 87 | 373.4 |
| 20260508130600 | 21 | 161 | 3.2 | 6.4 | 0.03 | 0.36 | 0.36 | 87 | 1728.9 |
| 20260508130103 | 21 | 289 | 1.6 | 9.7 | 0.00 | 0.36 | 0.36 | 87 | 963.5 |
| 20260508125558 | 21 | 304 | 3.2 | 9.7 | 0.00 | 0.36 | 0.36 | 87 | 322.8 |
| 20260508125102 | 21 | 296 | 4.8 | 6.4 | 0.00 | 0.36 | 0.36 | 87 | 1884.0 |
| 20260508124558 | 21 | 288 | 1.6 | 6.4 | 0.00 | 0.36 | 0.36 | 87 | 53.1 |
| 20260508124059 | 21 | 213 | 4.8 | 12.9 | 0.00 | 0.33 | 0.33 | 87 | 1046.2 |
| 20260508123557 | 21 | 227 | 4.8 | 12.9 | 0.00 | 0.33 | 0.33 | 87 | 145.3 |
| 20260508123107 | 21 | 246 | 3.2 | 8.0 | 0.00 | 0.33 | 0.33 | 88 | 1387.6 |
| 20260508122559 | 21 | 298 | 1.6 | 11.3 | 0.00 | 0.33 | 0.33 | 88 | 228.3 |
| 20260508122057 | 21 | 223 | 3.2 | 11.3 | 0.03 | 0.33 | 0.33 | 88 | 321.6 |
| 20260508121605 | 21 | 219 | 4.8 | 11.3 | 0.03 | 0.33 | 0.33 | 88 | 1449.7 |
| 20260508121058 | 21 | 251 | 4.8 | 9.7 | 0.08 | 0.33 | 0.33 | 88 | 818.6 |
| 20260508120600 | 21 | 191 | 3.2 | 8.0 | 0.08 | 0.33 | 0.33 | 88 | 1801.2 |
| 20260508120059 | 21 | 242 | 3.2 | 8.0 | 0.08 | 0.33 | 0.33 | 88 | 1946.0 |
| 20260508115557 | 21 | 224 | 1.6 | 8.0 | 0.10 | 0.33 | 0.33 | 88 | 1790.9 |
| 20260508115058 | 21 | 175 | 3.2 | 9.7 | 0.13 | 0.33 | 0.33 | 88 | 973.8 |
| 20260508114558 | 21 | 190 | 1.6 | 9.7 | 0.13 | 0.33 | 0.33 | 88 | 1863.3 |
| 20260508114059 | 21 | 140 | 3.2 | 9.7 | 0.13 | 0.33 | 0.33 | 88 | 1884.0 |
| 20260508113601 | 21 | 9 | 0.0 | 3.2 | 0.13 | 0.33 | 0.33 | 88 | 1284.2 |
| 20260508113112 | 21 | 0 | 0.0 | 6.4 | 0.10 | 0.30 | 0.30 | 88 | 477.0 |
| 20260508112557 | 21 | 0 | 3.2 | 6.4 | 0.10 | 0.30 | 0.30 | 88 | 1315.2 |
| 20260508112059 | 21 | 267 | 0.0 | 4.8 | 0.08 | 0.28 | 0.28 | 88 | 42.7 |
| 20260508111606 | 21 | 0 | 0.0 | 4.8 | 0.08 | 0.28 | 0.28 | 88 | 870.4 |
| 20260508111057 | 21 | 241 | 1.6 | 4.8 | 0.08 | 0.25 | 0.25 | 88 | 229.5 |
| 20260508110557 | 21 | 345 | 1.6 | 3.2 | 0.05 | 0.23 | 0.23 | 88 | 735.8 |
| 20260508110101 | 21 | 352 | 0.0 | 3.2 | 0.05 | 0.23 | 0.23 | 88 | 1625.5 |
| 20260508105602 | 21 | 0 | 0.0 | 1.6 | 0.03 | 0.20 | 0.20 | 88 | 642.7 |
| 20260508105103 | 21 | 0 | 1.6 | 3.2 | 0.00 | 0.18 | 0.18 | 88 | 239.9 |
| 20260508104559 | 21 | 294 | 1.6 | 4.8 | 0.00 | 0.18 | 0.18 | 88 | 53.1 |
| 20260508104101 | 21 | 325 | 0.0 | 6.4 | 0.00 | 0.18 | 0.18 | 88 | 704.8 |
| 20260508103604 | 21 | 325 | 1.6 | 6.4 | 0.03 | 0.18 | 0.18 | 88 | 1470.4 |
| 20260508103102 | 21 | 236 | 1.6 | 8.0 | 0.03 | 0.18 | 0.18 | 88 | 1625.5 |
| 20260508102600 | 21 | 185 | 1.6 | 8.0 | 0.03 | 0.18 | 0.18 | 88 | 477.0 |
| 20260508102101 | 21 | 244 | 1.6 | 8.0 | 0.03 | 0.18 | 0.18 | 88 | 1304.9 |
| 20260508101616 | 21 | 172 | 3.2 | 6.4 | 0.03 | 0.18 | 0.18 | 88 | 642.7 |
| 20260508101102 | 21 | 0 | 0.0 | 3.2 | 0.03 | 0.18 | 0.18 | 88 | 207.6 |
| 20260508100601 | 21 | 349 | 0.0 | 3.2 | 0.03 | 0.18 | 0.18 | 88 | 1387.6 |
| 20260508100058 | 21 | 0 | 0.0 | 6.4 | 0.03 | 0.18 | 0.18 | 88 | 1460.0 |
| 20260508095602 | 21 | 0 | 1.6 | 6.4 | 0.05 | 0.18 | 0.18 | 88 | 818.6 |
| 20260508095101 | 21 | 0 | 1.6 | 3.2 | 0.05 | 0.18 | 0.18 | 88 | 1615.1 |
| 20260508094600 | 21 | 284 | 1.6 | 3.2 | 0.05 | 0.18 | 0.18 | 87 | 238.7 |
| 20260508094101 | 21 | 137 | 0.0 | 3.2 | 0.05 | 0.18 | 0.18 | 87 | 787.6 |
| 20260508093601 | 21 | 101 | 1.6 | 9.7 | 0.03 | 0.15 | 0.15 | 87 | 1046.2 |
| 20260508093059 | 21 | 0 | 3.2 | 9.7 | 0.03 | 0.15 | 0.15 | 87 | 1294.5 |
| 20260508092600 | 21 | 140 | 3.2 | 8.0 | 0.03 | 0.15 | 0.15 | 87 | 155.7 |
| 20260508092101 | 21 | 0 | 3.2 | 6.4 | 0.03 | 0.15 | 0.15 | 87 | 103.8 |
| 20260508091610 | 21 | 213 | 1.6 | 6.4 | 0.03 | 0.15 | 0.15 | 86 | 1563.4 |
| 20260508091101 | 21 | 211 | 1.6 | 4.8 | 0.00 | 0.13 | 0.13 | 86 | 1863.3 |
| 20260508090601 | 21 | 149 | 1.6 | 8.0 | 0.00 | 0.13 | 0.13 | 86 | 290.5 |
| 20260508090113 | 21 | 100 | 3.2 | 11.3 | 0.00 | 0.13 | 0.13 | 86 | 798.0 |
| 20260508085600 | 21 | 182 | 4.8 | 11.3 | 0.00 | 0.10 | 0.10 | 86 | 953.2 |
| 20260508085100 | 21 | 195 | 4.8 | 11.3 | 0.00 | 0.10 | 0.10 | 86 | 155.7 |
| 20260508084559 | 21 | 215 | 3.2 | 11.3 | 0.00 | 0.10 | 0.10 | 86 | 290.5 |
| 20260508084101 | 21 | 214 | 8.0 | 11.3 | 0.00 | 0.10 | 0.10 | 86 | 73.9 |
| 20260508083602 | 21 | 173 | 4.8 | 12.9 | 0.00 | 0.10 | 0.10 | 86 | 1780.6 |
| 20260508083101 | 21 | 184 | 6.4 | 12.9 | 0.00 | 0.10 | 0.10 | 86 | 291.7 |
| 20260508082601 | 21 | 221 | 8.0 | 12.9 | 0.00 | 0.10 | 0.10 | 87 | 311.3 |
| 20260508082101 | 21 | 165 | 4.8 | 12.9 | 0.00 | 0.10 | 0.10 | 87 | 715.1 |
| 20260508081605 | 21 | 187 | 3.2 | 12.9 | 0.03 | 0.10 | 0.10 | 87 | 1232.5 |
| 20260508081104 | 21 | 189 | 4.8 | 12.9 | 0.03 | 0.10 | 0.10 | 87 | 622.0 |
| 20260508080601 | 21 | 232 | 4.8 | 11.3 | 0.03 | 0.10 | 0.10 | 87 | 1563.4 |
| 20260508080058 | 21 | 223 | 4.8 | 9.7 | 0.05 | 0.10 | 0.10 | 87 | 404.5 |
| 20260508075558 | 21 | 173 | 4.8 | 14.5 | 0.05 | 0.10 | 0.10 | 87 | 1149.7 |
| 20260508075100 | 21 | 182 | 6.4 | 17.7 | 0.05 | 0.10 | 0.10 | 87 | 539.1 |
| 20260508074612 | 21 | 205 | 6.4 | 17.7 | 0.08 | 0.10 | 0.10 | 87 | 653.0 |
| 20260508074101 | 21 | 232 | 6.4 | 14.5 | 0.08 | 0.08 | 0.08 | 87 | 901.4 |
| 20260508073602 | 21 | 171 | 6.4 | 14.5 | 0.08 | 0.08 | 0.08 | 87 | 1635.8 |
| 20260508073108 | 22 | 212 | 4.8 | 14.5 | 0.08 | 0.08 | 0.08 | 87 | 963.5 |
| 20260508072601 | 22 | 131 | 6.4 | 17.7 | 0.08 | 0.08 | 0.08 | 87 | 1615.1 |
| 20260508072101 | 22 | 185 | 8.0 | 17.7 | 0.08 | 0.08 | 0.08 | 87 | 1708.2 |
| 20260508071605 | 22 | 136 | 6.4 | 16.1 | 0.05 | 0.08 | 0.08 | 87 | 373.4 |
| 20260508071101 | 22 | 195 | 4.8 | 11.3 | 0.05 | 0.08 | 0.08 | 87 | 135.0 |
| 20260508070601 | 22 | 205 | 6.4 | 17.7 | 0.05 | 0.08 | 0.08 | 87 | 322.8 |
| 20260508070104 | 22 | 188 | 8.0 | 17.7 | 0.03 | 0.05 | 0.05 | 86 | 787.6 |
| 20260508065601 | 22 | 198 | 8.0 | 16.1 | 0.03 | 0.05 | 0.05 | 86 | 2111.4 |
| 20260508065102 | 22 | 209 | 6.4 | 19.3 | 0.03 | 0.05 | 0.05 | 86 | 124.6 |
| 20260508064601 | 22 | 186 | 8.0 | 20.9 | 0.00 | 0.03 | 0.03 | 85 | 1542.8 |
| 20260508064101 | 22 | 221 | 11.3 | 20.9 | 0.00 | 0.00 | 0.00 | 85 | 2214.8 |
| 20260508063601 | 23 | 215 | 4.8 | 11.3 | 0.00 | 0.00 | 0.00 | 85 | 374.6 |
| 20260508063100 | 23 | 221 | 6.4 | 17.7 | 0.00 | 0.00 | 0.00 | 84 | 984.2 |
| 20260508062600 | 23 | 190 | 6.4 | 17.7 | 0.00 | 0.00 | 0.00 | 84 | 1542.8 |
| 20260508062100 | 23 | 177 | 9.7 | 17.7 | 0.00 | 0.00 | 0.00 | 84 | 321.6 |
| 20260508061559 | 23 | 232 | 6.4 | 25.7 | 0.00 | 0.00 | 0.00 | 84 | 1625.5 |
| 20260508061058 | 23 | 213 | 12.9 | 25.7 | 0.00 | 0.00 | 0.00 | 84 | 322.8 |
| 20260508060600 | 23 | 209 | 9.7 | 20.9 | 0.00 | 0.00 | 0.00 | 83 | 2132.1 |
| 20260508055557 | 23 | 175 | 9.7 | 20.9 | 0.00 | 0.00 | 0.00 | 83 | 1046.2 |
| 20260508055101 | 23 | 206 | 12.9 | 22.5 | 0.00 | 0.00 | 0.00 | 82 | 300.9 |
| 20260508054601 | 23 | 162 | 12.9 | 22.5 | 0.00 | 0.00 | 0.00 | 82 | 1211.8 |
| 20260508054102 | 23 | 205 | 12.9 | 20.9 | 0.00 | 0.00 | 0.00 | 82 | 62.3 |
| 20260508053604 | 23 | 209 | 11.3 | 20.9 | 0.00 | 0.00 | 0.00 | 83 | 51.9 |
| 20260508053120 | 23 | 197 | 8.0 | 17.7 | 0.00 | 0.00 | 0.00 | 83 | 539.1 |
| 20260508052603 | 23 | 220 | 9.7 | 19.3 | 0.00 | 0.00 | 0.00 | 83 | 63.5 |
| 20260508052100 | 24 | 169 | 12.9 | 19.3 | 0.00 | 0.00 | 0.00 | 82 | 570.2 |
| 20260508051559 | 24 | 172 | 6.4 | 20.9 | 0.00 | 0.00 | 0.00 | 82 | 383.8 |
| 20260508051101 | 24 | 163 | 12.9 | 25.7 | 0.00 | 0.00 | 0.00 | 82 | 302.1 |
| 20260508050601 | 24 | 205 | 6.4 | 25.7 | 0.00 | 0.00 | 0.00 | 82 | 559.8 |
| 20260508050101 | 25 | 202 | 9.7 | 25.7 | 0.00 | 0.00 | 0.00 | 82 | 322.8 |
| 20260508045600 | 25 | 173 | 11.3 | 24.1 | 0.00 | 0.00 | 0.00 | 81 | 135.0 |
| 20260508045100 | 25 | 173 | 12.9 | 22.5 | 0.00 | 0.00 | 0.00 | 81 | 239.9 |
| 20260508044603 | 25 | 223 | 6.4 | 24.1 | 0.00 | 0.00 | 0.00 | 81 | 1811.6 |
| 20260508044101 | 25 | 147 | 14.5 | 24.1 | 0.00 | 0.00 | 0.00 | 81 | 321.6 |
| 20260508043601 | 25 | 182 | 12.9 | 19.3 | 0.00 | 0.00 | 0.00 | 81 | 477.0 |
| 20260508043105 | 25 | 198 | 11.3 | 19.3 | 0.00 | 0.00 | 0.00 | 81 | 715.1 |
| 20260508042601 | 25 | 217 | 12.9 | 19.3 | 0.00 | 0.00 | 0.00 | 81 | 405.7 |
| 20260508042103 | 25 | 232 | 8.0 | 14.5 | 0.00 | 0.00 | 0.00 | 81 | 704.8 |
| 20260508041617 | 25 | 225 | 6.4 | 12.9 | 0.00 | 0.00 | 0.00 | 81 | 63.5 |
| 20260508041103 | 25 | 207 | 6.4 | 16.1 | 0.00 | 0.00 | 0.00 | 81 | 321.6 |
| 20260508040601 | 25 | 164 | 4.8 | 16.1 | 0.00 | 0.00 | 0.00 | 81 | 146.5 |
| 20260508040110 | 25 | 229 | 11.3 | 16.1 | 0.00 | 0.00 | 0.00 | 80 | 311.3 |
| 20260508035601 | 25 | 222 | 9.7 | 17.7 | 0.00 | 0.00 | 0.00 | 81 | 466.6 |
| 20260508035101 | 25 | 196 | 8.0 | 17.7 | 0.00 | 0.00 | 0.00 | 81 | 549.5 |
| 20260508034603 | 25 | 223 | 4.8 | 22.5 | 0.00 | 0.00 | 0.00 | 81 | 291.7 |
| 20260508034101 | 25 | 227 | 12.9 | 22.5 | 0.00 | 0.00 | 0.00 | 81 | 2028.7 |
| 20260508033600 | 25 | 188 | 12.9 | 19.3 | 0.00 | 0.00 | 0.00 | 81 | 642.7 |
| 20260508033057 | 25 | 186 | 8.0 | 25.7 | 0.00 | 0.00 | 0.00 | 81 | 124.6 |
| 20260508032558 | 25 | 147 | 12.9 | 25.7 | 0.00 | 0.00 | 0.00 | 80 | 41.5 |
| 20260508032103 | 25 | 188 | 14.5 | 25.7 | 0.00 | 0.00 | 0.00 | 80 | 1956.3 |
| 20260508031601 | 25 | 190 | 14.5 | 24.1 | 0.00 | 0.00 | 0.00 | 81 | 1149.7 |
| 20260508031101 | 25 | 207 | 11.3 | 20.9 | 0.00 | 0.00 | 0.00 | 80 | 125.8 |
| 20260508030601 | 25 | 224 | 9.7 | 16.1 | 0.00 | 0.00 | 0.00 | 80 | 1201.4 |
| 20260508030104 | 26 | 177 | 6.4 | 16.1 | 0.00 | 0.00 | 0.00 | 80 | 217.9 |
| 20260508025600 | 25 | 254 | 4.8 | 14.5 | 0.00 | 0.00 | 0.00 | 81 | 1118.7 |
| 20260508025101 | 25 | 225 | 4.8 | 14.5 | 0.00 | 0.00 | 0.00 | 81 | 1035.9 |
| 20260508024606 | 25 | 232 | 8.0 | 19.3 | 0.00 | 0.00 | 0.00 | 81 | 880.7 |
| 20260508024101 | 25 | 225 | 9.7 | 19.3 | 0.00 | 0.00 | 0.00 | 81 | 1780.6 |
| 20260508023600 | 25 | 198 | 11.3 | 27.4 | 0.00 | 0.00 | 0.00 | 81 | 1387.6 |
| 20260508023102 | 25 | 208 | 12.9 | 27.4 | 0.00 | 0.00 | 0.00 | 81 | 2039.1 |
| 20260508022602 | 26 | 198 | 9.7 | 19.3 | 0.00 | 0.00 | 0.00 | 80 | 394.1 |
| 20260508022059 | 26 | 167 | 6.4 | 12.9 | 0.00 | 0.00 | 0.00 | 79 | 1480.7 |
| 20260508021558 | 25 | 183 | 4.8 | 12.9 | 0.00 | 0.00 | 0.00 | 81 | 487.3 |
| 20260508021058 | 25 | 184 | 3.2 | 12.9 | 0.00 | 0.00 | 0.00 | 80 | 466.6 |
| 20260508020558 | 25 | 218 | 8.0 | 19.3 | 0.00 | 0.00 | 0.00 | 80 | 72.7 |
| 20260508015558 | 25 | 192 | 12.9 | 24.1 | 0.00 | 0.00 | 0.00 | 81 | 953.2 |
| 20260508015059 | 25 | 203 | 11.3 | 24.1 | 0.00 | 0.00 | 0.00 | 81 | 632.3 |
| 20260508014558 | 25 | 216 | 11.3 | 24.1 | 0.00 | 0.00 | 0.00 | 80 | 1532.4 |
| 20260508014058 | 25 | 194 | 9.7 | 19.3 | 0.00 | 0.00 | 0.00 | 80 | 1542.8 |
| 20260508013600 | 26 | 217 | 11.3 | 19.3 | 0.00 | 0.00 | 0.00 | 80 | 2039.1 |
| 20260508013058 | 26 | 214 | 9.7 | 16.1 | 0.00 | 0.00 | 0.00 | 80 | 135.0 |
| 20260508012602 | 25 | 238 | 8.0 | 17.7 | 0.00 | 0.00 | 0.00 | 80 | 322.8 |
| 20260508012059 | 25 | 234 | 11.3 | 17.7 | 0.00 | 0.00 | 0.00 | 80 | 487.3 |
| 20260508011602 | 25 | 234 | 6.4 | 17.7 | 0.00 | 0.00 | 0.00 | 80 | 1315.2 |
| 20260508011058 | 25 | 216 | 11.3 | 16.1 | 0.00 | 0.00 | 0.00 | 80 | 725.5 |
| 20260508010558 | 25 | 217 | 8.0 | 16.1 | 0.00 | 0.00 | 0.00 | 80 | 1129.0 |
| 20260508010101 | 25 | 260 | 9.7 | 19.3 | 0.00 | 0.00 | 0.00 | 80 | 1884.0 |
| 20260508005558 | 25 | 210 | 11.3 | 19.3 | 0.00 | 0.00 | 0.00 | 81 | 735.8 |
| 20260508005102 | 25 | 251 | 9.7 | 17.7 | 0.00 | 0.00 | 0.00 | 81 | 1646.2 |
| 20260508004600 | 25 | 200 | 11.3 | 19.3 | 0.00 | 0.00 | 0.00 | 82 | 1790.9 |
| 20260508004059 | 24 | 217 | 9.7 | 19.3 | 0.00 | 0.00 | 0.00 | 82 | 291.7 |
| 20260508003601 | 24 | 176 | 11.3 | 17.7 | 0.00 | 0.00 | 0.00 | 82 | 145.3 |
| 20260508003105 | 24 | 211 | 9.7 | 17.7 | 0.00 | 0.00 | 0.00 | 83 | 715.1 |
| 20260508002600 | 24 | 219 | 6.4 | 17.7 | 0.00 | 0.00 | 0.00 | 84 | 1625.5 |
| 20260508002100 | 23 | 196 | 6.4 | 17.7 | 0.00 | 0.00 | 0.00 | 84 | 1304.9 |
| 20260508001558 | 23 | 190 | 4.8 | 14.5 | 0.00 | 0.00 | 0.00 | 85 | 239.9 |
| 20260508001059 | 23 | 214 | 3.2 | 17.7 | 0.00 | 0.00 | 0.00 | 84 | 973.8 |
| 20260508000559 | 23 | 177 | 8.0 | 20.9 | 0.00 | 0.00 | 0.00 | 84 | 487.3 |
| 20260508000100 | 23 | 186 | 9.7 | 25.7 | 0.00 | 0.00 | 0.00 | 83 | 72.7 |
| 20260507235559 | 24 | 195 | 14.5 | 25.7 | 0.00 | 0.00 | 0.00 | 81 | 1066.9 |
| 20260507235101 | 25 | 178 | 4.8 | 12.9 | 0.00 | 0.00 | 0.00 | 80 | 395.3 |
| 20260507234600 | 25 | 224 | 6.4 | 16.1 | 0.00 | 0.00 | 0.00 | 80 | 1149.7 |
| 20260507234100 | 25 | 263 | 8.0 | 16.1 | 0.00 | 0.00 | 0.00 | 80 | 1625.5 |
| 20260507233600 | 25 | 195 | 8.0 | 22.5 | 0.00 | 0.00 | 0.00 | 80 | 622.0 |
| 20260507233105 | 25 | 223 | 8.0 | 22.5 | 0.00 | 0.00 | 0.00 | 80 | 466.6 |
| 20260507232600 | 25 | 186 | 8.0 | 22.5 | 0.00 | 0.00 | 0.00 | 80 | 870.4 |
| 20260507232058 | 25 | 248 | 6.4 | 19.3 | 0.00 | 0.00 | 0.00 | 80 | 1201.4 |
| 20260507231600 | 25 | 191 | 4.8 | 12.9 | 0.00 | 0.00 | 0.00 | 81 | 135.0 |
| 20260507231100 | 25 | 215 | 6.4 | 16.1 | 0.00 | 0.00 | 0.00 | 81 | 1780.6 |
| 20260507230602 | 24 | 208 | 3.2 | 16.1 | 0.00 | 0.00 | 0.00 | 82 | 456.3 |
| 20260507225559 | 24 | 187 | 6.4 | 16.1 | 0.00 | 0.00 | 0.00 | 82 | 1801.2 |
| 20260507225059 | 23 | 211 | 6.4 | 16.1 | 0.00 | 0.00 | 0.00 | 82 | 302.1 |
| 20260507224601 | 23 | 186 | 8.0 | 17.7 | 0.00 | 0.00 | 0.00 | 82 | 2194.1 |
| 20260507224059 | 23 | 158 | 8.0 | 17.7 | 0.00 | 0.00 | 0.00 | 81 | 1780.6 |
| 20260507223601 | 23 | 184 | 6.4 | 14.5 | 0.00 | 0.00 | 0.00 | 82 | 1966.7 |
| 20260507223103 | 23 | 217 | 1.6 | 9.7 | 0.00 | 0.00 | 0.00 | 82 | 1625.5 |
| 20260507222558 | 23 | 185 | 6.4 | 9.7 | 0.00 | 0.00 | 0.00 | 82 | 1625.5 |
| 20260507222058 | 23 | 236 | 3.2 | 6.4 | 0.00 | 0.00 | 0.00 | 83 | 383.8 |
| 20260507221558 | 23 | 277 | 1.6 | 6.4 | 0.00 | 0.00 | 0.00 | 83 | 1801.2 |
| 20260507221101 | 23 | 284 | 3.2 | 11.3 | 0.00 | 0.00 | 0.00 | 84 | 2039.1 |
| 20260507220558 | 23 | 281 | 3.2 | 12.9 | 0.00 | 0.00 | 0.00 | 84 | 1066.9 |
| 20260507220059 | 23 | 87 | 6.4 | 12.9 | 0.00 | 0.00 | 0.00 | 84 | 291.7 |
| 20260507215559 | 22 | 238 | 4.8 | 12.9 | 0.00 | 0.00 | 0.00 | 83 | 302.1 |
| 20260507215059 | 22 | 21 | 1.6 | 12.9 | 0.00 | 0.00 | 0.00 | 83 | 1625.5 |
| 20260507214609 | 23 | 129 | 3.2 | 12.9 | 0.00 | 0.00 | 0.00 | 83 | 1532.4 |
| 20260507214058 | 23 | 271 | 6.4 | 12.9 | 0.00 | 0.00 | 0.00 | 83 | 1977.0 |
| 20260507213558 | 22 | 201 | 3.2 | 8.0 | 0.00 | 0.00 | 0.00 | 83 | 1139.4 |
| 20260507213106 | 22 | 0 | 3.2 | 11.3 | 0.00 | 0.00 | 0.00 | 83 | 984.2 |
| 20260507212602 | 22 | 166 | 4.8 | 11.3 | 0.00 | 0.00 | 0.00 | 83 | 1718.5 |
| 20260507212103 | 22 | 291 | 1.6 | 12.9 | 0.00 | 0.00 | 0.00 | 83 | 383.8 |
| 20260507211558 | 22 | 234 | 4.8 | 12.9 | 0.00 | 0.00 | 0.00 | 84 | 146.5 |
| 20260507211057 | 22 | 255 | 3.2 | 11.3 | 0.00 | 0.00 | 0.00 | 84 | 1708.2 |
| 20260507210559 | 22 | 225 | 4.8 | 11.3 | 0.00 | 0.00 | 0.00 | 84 | 155.7 |